Weather History for KNMM - October, 2012

Change the Weather History Date:

Monday, October 29, 2012

  Actual Average Record
Temperature  
Mean Temperature 47 °F -  
Max Temperature 59 °F 71 °F 86 °F (2000)
Min Temperature 37 °F 50 °F 28 °F (2001)
Degree Days  
Heating Degree Days 18    
Moisture  
Dew Point 32 °F    
Average Humidity 60    
Maximum Humidity 86    
Minimum Humidity 32    
Precipitation  
Precipitation 0.00 in - - ()
Sea Level Pressure  
Sea Level Pressure 30.14 in    
Wind  
Wind Speed 9 mph (NW)    
Max Wind Speed 20 mph    
Max Gust Speed 32 mph    
Visibility 10 miles    
Events      
Averages and records for this station are not official NWS values.
T = Trace of Precipitation, MM = Missing Value Source: NWS Daily Summary

Daily Weather History Graph

Daily Weather History Graph

Search for Another Location

Airport or City:

Trip Planner

Search our weather history database for the weather conditions in past years. The results will help you decide how hot, cold, wet, or windy it might be!

Date:

Astronomy

Oct. 29, 2012 Rise Set
Actual Time 7:09 AM CDT 6:05 PM CDT
Civil Twilight 6:44 AM CDT 6:31 PM CDT
Nautical Twilight 6:15 AM CDT 7:00 PM CDT
Astronomical Twilight 5:46 AM CDT 7:28 PM CDT
Moon 6:00 PM CDT (10/29) 6:58 AM CDT (10/29)
Length of Visible Light 11h 46m
Length of Day
10h 56m
Full, 100% of the Moon is Illuminated
Oct 29
Full
Oct 29
Full
Nov 6
Last Quarter
Nov 13
New
Nov 20
First Quarter

Hourly Weather History & Observations

Time (CDT) Temp. Windchill Dew Point Humidity Pressure Visibility Wind Dir Wind Speed Gust Speed Precip Events Conditions
12:56 AM 42.1 °F 37.7 °F 35.1 °F 76% 30.17 in 10.0 mi NW 6.9 mph - N/A   Clear
1:56 AM 39.9 °F 35.1 °F 34.0 °F 79% 30.17 in 10.0 mi NW 6.9 mph - N/A   Clear
2:56 AM 39.0 °F 34.0 °F 34.0 °F 82% 30.17 in 10.0 mi WNW 6.9 mph - N/A   Clear
3:56 AM 39.0 °F 34.0 °F 34.0 °F 82% 30.17 in 10.0 mi NW 6.9 mph - N/A   Clear
4:56 AM 37.0 °F 33.3 °F 33.1 °F 86% 30.17 in 10.0 mi WNW 4.6 mph - N/A   Clear
5:56 AM 37.0 °F 33.3 °F 33.1 °F 86% 30.17 in 10.0 mi WNW 4.6 mph - N/A   Clear
6:56 AM 37.0 °F 31.6 °F 32.0 °F 82% 30.18 in 10.0 mi NW 6.9 mph - N/A   Clear
7:56 AM 37.9 °F 32.7 °F 33.1 °F 83% 30.20 in 10.0 mi NW 6.9 mph - N/A   Clear
8:56 AM 43.0 °F 37.7 °F 34.0 °F 71% 30.21 in 10.0 mi NNW 9.2 mph - N/A   Clear
9:56 AM 48.9 °F - 32.0 °F 52% 30.21 in 10.0 mi NNW 16.1 mph 21.9 mph N/A   Clear
10:56 AM 51.1 °F - 30.0 °F 44% 30.20 in 10.0 mi North 16.1 mph 21.9 mph N/A   Clear
11:56 AM 54.0 °F - 30.0 °F 40% 30.18 in 10.0 mi NNW 12.7 mph 20.7 mph N/A   Clear
12:56 PM 55.0 °F - 28.9 °F 37% 30.16 in 10.0 mi NNW 17.3 mph 26.5 mph N/A   Clear
1:56 PM 57.0 °F - 28.9 °F 34% 30.13 in 10.0 mi NW 19.6 mph 32.2 mph N/A   Clear
2:56 PM 57.9 °F - 28.9 °F 33% 30.10 in 10.0 mi NNW 18.4 mph 26.5 mph N/A   Clear
3:56 PM 57.9 °F - 28.0 °F 32% 30.09 in 10.0 mi NNW 18.4 mph - N/A   Clear
4:56 PM 57.0 °F - 28.0 °F 33% 30.09 in 10.0 mi NNW 15.0 mph 25.3 mph N/A   Clear
5:56 PM 53.1 °F - 28.9 °F 40% 30.09 in 10.0 mi NW 13.8 mph 19.6 mph N/A   Clear
6:56 PM 50.0 °F - 30.9 °F 48% 30.09 in 10.0 mi NW 9.2 mph - N/A   Clear
7:56 PM 48.0 °F - 32.0 °F 54% 30.10 in 10.0 mi NW 10.4 mph - N/A   Clear
8:56 PM 46.0 °F 41.0 °F 32.0 °F 58% 30.11 in 10.0 mi NW 10.4 mph - N/A   Clear
9:56 PM 45.0 °F 39.7 °F 32.0 °F 60% 30.11 in 10.0 mi NW 10.4 mph - N/A   Clear
10:56 PM 43.0 °F 38.8 °F 32.0 °F 65% 30.10 in 10.0 mi NW 6.9 mph - N/A   Clear
11:56 PM 39.0 °F 34.8 °F 32.0 °F 76% 30.08 in 10.0 mi WNW 5.8 mph - N/A   Clear